GW4941 Weather Reports


time (UTC)temp
C
wind
direction
speed
KPH
gust
KPH
rain 1hr
cm
rain 24hr
cm
rain mn
cm
humidity
%
barometer
mb
20260505051452 10 256 0.0 0.0 0.00 0.00 0.00 97 1011.5
20260505050950 10 256 0.0 0.0 0.00 0.00 0.00 97 1011.4
20260505050448 10 256 0.0 0.0 0.00 0.00 0.00 97 1011.3
20260505041416 9 256 0.0 0.0 0.00 0.00 0.00 96 1011.0
20260505040913 9 256 0.0 0.0 0.00 0.00 0.00 96 1010.9
20260505040411 10 256 0.0 0.0 0.00 0.00 0.00 96 1011.0
20260505035907 10 256 0.0 0.0 0.00 0.00 0.00 96 1010.8
20260505035403 10 256 0.0 0.0 0.00 0.00 0.00 96 1010.8
20260505034901 10 256 0.0 0.0 0.00 0.00 0.00 95 1010.8
20260505034357 10 256 0.0 0.0 0.00 0.00 0.00 95 1010.8
20260505033854 10 256 0.0 0.0 0.00 0.00 0.00 95 1010.8
20260505033351 10 256 0.0 0.0 0.00 0.00 0.00 95 1010.8
20260505032849 10 256 0.0 0.0 0.00 0.00 0.00 95 1010.8
20260505032345 10 256 0.0 0.0 0.00 0.00 0.00 95 1010.8
20260505031842 10 256 0.0 0.0 0.00 0.00 0.00 95 1010.7
20260505031339 10 256 0.0 0.0 0.00 0.00 0.00 94 1010.8
20260505030836 10 256 0.0 0.0 0.00 0.00 0.00 94 1010.8
20260505030332 10 256 0.0 0.0 0.00 0.00 0.00 94 1010.8
20260505025828 10 256 0.0 0.0 0.00 0.00 0.00 94 1010.9
20260505025325 10 256 0.0 0.0 0.00 0.00 0.00 94 1010.8
20260505024824 10 256 0.0 0.0 0.00 0.00 0.00 93 1010.8
20260505024321 11 256 0.0 0.0 0.00 0.00 0.00 93 1011.0
20260505023818 11 256 0.0 0.0 0.00 0.00 0.00 93 1011.0
20260505023315 11 252 0.0 0.0 0.00 0.00 0.00 93 1010.9
20260505022812 11 252 0.0 0.0 0.00 0.00 0.00 92 1011.0
20260505022309 11 252 0.0 0.0 0.00 0.00 0.00 92 1010.9
20260505021806 11 252 0.0 0.0 0.00 0.00 0.00 92 1010.7
20260505021303 11 252 0.0 0.0 0.00 0.00 0.00 92 1010.6
20260505020759 11 252 0.0 0.0 0.00 0.00 0.00 91 1010.8
20260505020254 11 252 0.0 0.0 0.00 0.00 0.00 91 1010.6
20260505015752 11 252 0.0 0.0 0.00 0.00 0.00 91 1010.6
20260505015248 12 252 0.0 0.0 0.00 0.00 0.00 90 1010.8
20260505014746 12 252 0.0 0.0 0.00 0.00 0.00 90 1010.8
20260505014243 12 252 0.0 0.0 0.00 0.00 0.00 90 1010.9
20260505013739 12 252 0.0 0.0 0.00 0.00 0.00 89 1010.7
20260505013237 12 252 0.0 0.0 0.00 0.00 0.00 88 1010.8
20260505012735 12 252 0.0 0.0 0.00 0.00 0.00 88 1010.7
20260505012232 13 252 0.0 0.0 0.00 0.00 0.00 88 1010.7
20260505011727 13 251 0.0 0.0 0.00 0.00 0.00 87 1010.6
20260505011225 13 251 0.0 0.0 0.00 0.00 0.00 87 1010.7
20260505010720 13 251 0.0 0.0 0.00 0.00 0.00 86 1010.5
20260505010217 13 251 0.0 0.0 0.00 0.00 0.00 86 1010.6
20260505005713 13 251 0.0 0.0 0.00 0.00 0.00 85 1010.5
20260505005211 14 251 0.0 0.0 0.00 0.00 0.00 84 1010.5
20260505004707 14 251 0.0 0.0 0.00 0.00 0.00 83 1010.6
20260505004204 15 251 0.0 0.0 0.00 0.00 0.00 82 1010.6
20260505003701 15 251 0.0 0.0 0.00 0.00 0.00 80 1010.8
20260505003159 15 251 0.0 0.0 0.00 0.00 0.00 79 1010.9
20260505002655 16 251 1.6 1.6 0.00 0.00 0.00 78 1010.7
20260505002153 16 251 0.0 0.0 0.00 0.00 0.00 77 1010.8
20260505001649 16 251 0.0 1.6 0.00 0.00 0.00 75 1010.5
20260505001147 17 250 0.0 0.0 0.00 0.00 0.00 74 1010.8
20260505000644 17 248 0.0 1.6 0.00 0.00 0.00 73 1010.7
20260505000142 18 247 0.0 0.0 0.00 0.00 0.00 69 1010.7
20260504235638 18 247 0.0 1.6 0.00 0.00 0.00 68 1010.7
20260504235135 20 161 0.0 1.6 0.00 0.00 0.00 60 1010.6
20260504234632 21 119 0.0 0.0 0.00 0.00 0.00 55 1010.7
20260504234129 21 223 0.0 0.0 0.00 0.00 0.00 53 1010.8
20260504233625 22 223 0.0 0.0 0.00 0.00 0.00 52 1010.9
20260504233121 22 223 0.0 0.0 0.00 0.00 0.00 50 1010.9
20260504232619 21 222 0.0 0.0 0.00 0.00 0.00 55 1010.9
20260504232116 22 240 3.2 4.8 0.00 0.00 0.00 52 1010.8
20260504231613 22 242 3.2 3.2 0.00 0.00 0.00 47 1010.9
20260504231108 22 209 4.8 6.4 0.00 0.00 0.00 48 1010.9
20260504230604 22 234 3.2 3.2 0.00 0.00 0.00 51 1011.1
20260504230104 22 210 1.6 9.7 0.00 0.00 0.00 47 1011.0
20260504225601 22 25 0.0 3.2 0.00 0.00 0.00 48 1011.1
20260504225058 22 42 6.4 6.4 0.00 0.00 0.00 46 1011.1
20260504224554 22 265 4.8 4.8 0.00 0.00 0.00 48 1011.2
20260504224051 22 23 0.0 3.2 0.00 0.00 0.00 45 1010.9
20260504223548 22 344 1.6 6.4 0.00 0.00 0.00 46 1011.2
20260504223044 21 224 0.0 1.6 0.00 0.00 0.00 48 1011.1
20260504222541 21 234 4.8 6.4 0.00 0.00 0.00 49 1011.0
20260504222038 22 239 1.6 3.2 0.00 0.00 0.00 48 1010.7
20260504221536 22 30 0.0 3.2 0.00 0.00 0.00 47 1010.9
20260504221032 22 219 4.8 6.4 0.00 0.00 0.00 47 1011.0
20260504220529 22 135 0.0 9.7 0.00 0.00 0.00 46 1011.0
20260504220026 22 87 1.6 3.2 0.00 0.00 0.00 47 1010.9
20260504215522 22 293 1.6 3.2 0.00 0.00 0.00 45 1011.0
20260504215020 22 311 3.2 6.4 0.00 0.00 0.00 47 1011.2
20260504214516 22 201 3.2 4.8 0.00 0.00 0.00 47 1011.0
20260504214012 22 107 1.6 3.2 0.00 0.00 0.00 46 1010.9
20260504213508 22 165 1.6 3.2 0.00 0.00 0.00 47 1011.0
20260504213006 22 95 0.0 3.2 0.00 0.00 0.00 46 1011.0
20260504212501 22 211 1.6 4.8 0.00 0.00 0.00 45 1011.0
20260504211959 22 213 0.0 11.3 0.00 0.00 0.00 45 1011.0
20260504211455 23 64 9.7 14.5 0.00 0.00 0.00 44 1010.6
20260504210953 23 233 1.6 9.7 0.00 0.00 0.00 44 1010.5
20260504210450 23 212 0.0 11.3 0.00 0.00 0.00 47 1010.5
20260504205947 23 228 1.6 6.4 0.00 0.00 0.00 43 1010.6
20260504205444 22 196 6.4 11.3 0.00 0.00 0.00 47 1010.5
20260504204942 22 206 8.0 16.1 0.00 0.00 0.00 47 1010.7
20260504204440 22 182 6.4 12.9 0.00 0.00 0.00 48 1010.5
20260504203939 22 207 1.6 12.9 0.00 0.00 0.00 49 1010.9
20260504203437 22 226 3.2 11.3 0.00 0.00 0.00 49 1010.9
20260504202932 23 218 6.4 14.5 0.00 0.00 0.00 44 1010.7
20260504202429 23 234 4.8 6.4 0.00 0.00 0.00 45 1011.1
20260504201926 22 228 9.7 12.9 0.00 0.00 0.00 45 1011.0
20260504201423 21 54 1.6 1.6 0.00 0.00 0.00 48 1010.9
20260504200921 21 249 0.0 1.6 0.00 0.00 0.00 50 1011.2
20260504200417 21 224 1.6 4.8 0.00 0.00 0.00 50 1011.1
20260504195914 21 35 4.8 9.7 0.00 0.00 0.00 47 1011.3
20260504195410 21 278 3.2 12.9 0.00 0.00 0.00 49 1011.2
20260504194907 22 118 3.2 6.4 0.00 0.00 0.00 48 1011.2
20260504194402 22 220 9.7 14.5 0.00 0.00 0.00 45 1011.1
20260504193859 22 190 6.4 14.5 0.00 0.00 0.00 48 1011.2
20260504193356 22 206 3.2 6.4 0.00 0.00 0.00 47 1011.4
20260504192855 22 63 3.2 6.4 0.00 0.00 0.00 46 1011.2
20260504192352 22 120 1.6 9.7 0.00 0.00 0.00 46 1011.4
20260504191850 22 236 4.8 11.3 0.00 0.00 0.00 44 1011.7
20260504191348 22 221 4.8 6.4 0.00 0.00 0.00 49 1011.3
20260504190843 22 211 6.4 14.5 0.00 0.00 0.00 45 1011.6
20260504190339 22 239 1.6 12.9 0.00 0.00 0.00 44 1011.6
20260504185836 23 131 8.0 9.7 0.00 0.00 0.00 42 1011.4
20260504185333 22 235 8.0 12.9 0.00 0.00 0.00 43 1011.4
20260504184829 22 9 4.8 11.3 0.00 0.00 0.00 43 1011.4
20260504184325 22 51 9.7 11.3 0.00 0.00 0.00 43 1011.3
20260504183821 22 247 3.2 12.9 0.00 0.00 0.00 44 1011.2
20260504183318 21 225 8.0 16.1 0.00 0.00 0.00 43 1011.4
20260504182816 23 223 9.7 12.9 0.00 0.00 0.00 42 1011.7
20260504182313 22 244 3.2 9.7 0.00 0.00 0.00 44 1011.7
20260504181810 22 21 3.2 9.7 0.00 0.00 0.00 44 1011.8
20260504181308 21 202 6.4 16.1 0.00 0.00 0.00 44 1011.9
20260504180807 22 177 3.2 12.9 0.00 0.00 0.00 45 1011.7
20260504180305 22 208 3.2 9.7 0.00 0.00 0.00 48 1012.0
20260504175802 21 26 8.0 11.3 0.00 0.00 0.00 47 1012.1
20260504175259 22 262 6.4 9.7 0.00 0.00 0.00 48 1012.0
20260504174757 21 226 3.2 11.3 0.00 0.00 0.00 48 1012.1
20260504174254 21 222 8.0 17.7 0.00 0.00 0.00 46 1012.1
20260504173750 20 70 8.0 11.3 0.00 0.00 0.00 49 1012.2
20260504173248 20 78 3.2 11.3 0.00 0.00 0.00 52 1012.5
20260504172744 20 290 4.8 24.1 0.00 0.00 0.00 50 1012.5
20260504172241 20 237 4.8 16.1 0.00 0.00 0.00 49 1012.6
20260504171737 21 97 3.2 12.9 0.00 0.00 0.00 49 1012.7
20260504171234 20 242 11.3 20.9 0.00 0.00 0.00 51 1013.0
20260504170732 20 208 8.0 16.1 0.00 0.00 0.00 50 1012.9
20260504170229 19 211 6.4 16.1 0.00 0.00 0.00 52 1013.0
20260504160147 18 100 0.0 11.3 0.00 0.00 0.00 55 1014.1
20260504151114 16 109 0.0 9.7 0.00 0.00 0.00 54 1014.7
20260504150612 17 213 4.8 9.7 0.00 0.00 0.00 53 1014.5
20260504150109 17 99 3.2 9.7 0.00 0.00 0.00 55 1014.8
20260504141037 16 178 1.6 12.9 0.00 0.00 0.00 53 1014.4
20260504140534 16 42 4.8 6.4 0.00 0.00 0.00 51 1014.7
20260504130458 12 79 4.8 4.8 0.00 0.00 0.00 64 1014.6
20260504110345 5 344 0.0 1.6 0.00 0.00 0.00 95 1014.8
20260504100303 7 341 0.0 0.0 0.00 0.00 0.00 94 1015.2
20260504081656 7 341 0.0 0.0 0.00 0.00 0.00 88 1015.7
20260504081152 7 341 0.0 0.0 0.00 0.00 0.00 89 1016.2
20260504080649 7 341 0.0 0.0 0.00 0.00 0.00 88 1015.9
20260504080145 7 341 0.0 0.0 0.00 0.00 0.00 88 1016.0
20260504070114 7 349 0.0 0.0 0.00 0.00 0.00 85 1015.9